| time (UTC) | temp F | wind direction | speed MPH | gust MPH | rain 1hr in | rain 24hr in | rain mn in | humidity % | barometer mb |
| 20260905180830 | 98 | 57 | 5.0 | 8.0 | 0.00 | 0.00 | 0.00 | 44 | 1014.8 |
| 20260905180130 | 98 | 63 | 2.0 | 8.0 | 0.00 | 0.00 | 0.00 | 43 | 1014.8 |
| 20260905175431 | 97 | 55 | 5.0 | 8.0 | 0.00 | 0.00 | 0.00 | 44 | 1015.1 |
| 20260905174730 | 97 | 71 | 8.0 | 8.0 | 0.00 | 0.00 | 0.00 | 44 | 1014.8 |
| 20260905174030 | 97 | 56 | 2.0 | 6.0 | 0.00 | 0.00 | 0.00 | 45 | 1014.8 |
| 20260905173330 | 96 | 59 | 2.0 | 6.0 | 0.00 | 0.00 | 0.00 | 46 | 1015.1 |
| 20260905172630 | 96 | 65 | 2.0 | 6.0 | 0.00 | 0.00 | 0.00 | 48 | 1015.1 |
| 20260905171931 | 96 | 69 | 0.0 | 6.0 | 0.00 | 0.00 | 0.00 | 48 | 1015.5 |
| 20260905171230 | 96 | 91 | 5.0 | 6.0 | 0.00 | 0.00 | 0.00 | 47 | 1015.5 |
| 20260905170530 | 96 | 50 | 2.0 | 6.0 | 0.00 | 0.00 | 0.00 | 49 | 1015.5 |
| 20260905165830 | 95 | 62 | 0.0 | 6.0 | 0.00 | 0.00 | 0.00 | 49 | 1015.5 |
| 20260905164430 | 95 | 75 | 5.0 | 6.0 | 0.00 | 0.00 | 0.00 | 49 | 1015.5 |
| 20260905163730 | 94 | 101 | 5.0 | 6.0 | 0.00 | 0.00 | 0.00 | 52 | 1015.5 |
| 20260905163030 | 94 | 59 | 0.0 | 6.0 | 0.00 | 0.00 | 0.00 | 53 | 1015.8 |
| 20260905162330 | 94 | 41 | 5.0 | 6.0 | 0.00 | 0.00 | 0.00 | 54 | 1015.8 |
| 20260905161630 | 93 | 61 | 5.0 | 6.0 | 0.00 | 0.00 | 0.00 | 56 | 1015.5 |
| 20260905160233 | 93 | 65 | 2.0 | 6.0 | 0.00 | 0.00 | 0.00 | 54 | 1015.8 |
| 20260905155533 | 93 | 57 | 5.0 | 6.0 | 0.00 | 0.00 | 0.00 | 58 | 1015.8 |
| 20260905154833 | 92 | 76 | 5.0 | 4.0 | 0.00 | 0.00 | 0.00 | 56 | 1015.5 |
| 20260905154133 | 92 | 68 | 0.0 | 4.0 | 0.00 | 0.00 | 0.00 | 58 | 1015.8 |
| 20260905153433 | 91 | 26 | 2.0 | 6.0 | 0.00 | 0.00 | 0.00 | 61 | 1015.8 |
| 20260905151333 | 89 | 60 | 0.0 | 6.0 | 0.00 | 0.00 | 0.00 | 63 | 1015.8 |
| 20260905150633 | 89 | 62 | 2.0 | 6.0 | 0.00 | 0.00 | 0.00 | 63 | 1015.8 |
| 20260905144534 | 87 | 60 | 2.0 | 6.0 | 0.00 | 0.00 | 0.00 | 66 | 1015.5 |
| 20260905143833 | 87 | 60 | 0.0 | 6.0 | 0.00 | 0.00 | 0.00 | 66 | 1015.5 |
| 20260905143133 | 87 | 61 | 0.0 | 6.0 | 0.00 | 0.00 | 0.00 | 68 | 1015.5 |
| 20260905142432 | 86 | 60 | 0.0 | 4.0 | 0.00 | 0.00 | 0.00 | 68 | 1015.5 |
| 20260905141733 | 86 | 58 | 2.0 | 4.0 | 0.00 | 0.00 | 0.00 | 68 | 1015.5 |
| 20260905141033 | 86 | 53 | 5.0 | 4.0 | 0.00 | 0.00 | 0.00 | 69 | 1015.5 |
| 20260905135637 | 86 | 58 | 0.0 | 4.0 | 0.00 | 0.00 | 0.00 | 69 | 1015.5 |
| 20260905134933 | 85 | 59 | 0.0 | 4.0 | 0.00 | 0.00 | 0.00 | 70 | 1015.5 |
| 20260905133533 | 83 | 60 | 0.0 | 4.0 | 0.00 | 0.00 | 0.00 | 73 | 1015.5 |
| 20260905132833 | 82 | 59 | 0.0 | 4.0 | 0.00 | 0.00 | 0.00 | 73 | 1015.1 |
| 20260905131432 | 80 | 61 | 0.0 | 4.0 | 0.00 | 0.00 | 0.00 | 74 | 1015.1 |
| 20260905130733 | 80 | 59 | 0.0 | 4.0 | 0.00 | 0.00 | 0.00 | 74 | 1015.1 |
| 20260905130032 | 80 | 58 | 0.0 | 4.0 | 0.00 | 0.00 | 0.00 | 74 | 1014.8 |
| 20260905125532 | 80 | 63 | 0.0 | 4.0 | 0.00 | 0.00 | 0.00 | 74 | 1014.8 |
| 20260905123432 | 79 | 58 | 0.0 | 0.0 | 0.00 | 0.00 | 0.00 | 74 | 1014.8 |
| 20260905122733 | 79 | 59 | 0.0 | 0.0 | 0.00 | 0.00 | 0.00 | 73 | 1015.1 |
| 20260905122032 | 80 | 59 | 0.0 | 0.0 | 0.00 | 0.00 | 0.00 | 73 | 1014.8 |
| 20260905121332 | 80 | 59 | 0.0 | 0.0 | 0.00 | 0.00 | 0.00 | 73 | 1014.5 |
| 20260905120632 | 80 | 58 | 0.0 | 0.0 | 0.00 | 0.00 | 0.00 | 73 | 1014.8 |
| 20260905115932 | 80 | 58 | 0.0 | 4.0 | 0.00 | 0.00 | 0.00 | 73 | 1014.8 |
| 20260905115232 | 80 | 59 | 0.0 | 4.0 | 0.00 | 0.00 | 0.00 | 73 | 1014.8 |
| 20260905114533 | 80 | 58 | 0.0 | 4.0 | 0.00 | 0.00 | 0.00 | 72 | 1014.5 |
| 20260905113834 | 81 | 62 | 0.0 | 4.0 | 0.00 | 0.00 | 0.00 | 72 | 1014.5 |
| 20260905113132 | 81 | 61 | 0.0 | 4.0 | 0.00 | 0.00 | 0.00 | 72 | 1014.5 |
| 20260905111732 | 81 | 62 | 0.0 | 4.0 | 0.00 | 0.00 | 0.00 | 72 | 1014.5 |
| 20260905111033 | 80 | 59 | 0.0 | 4.0 | 0.00 | 0.00 | 0.00 | 72 | 1014.5 |
| 20260905110332 | 80 | 58 | 0.0 | 2.0 | 0.00 | 0.00 | 0.00 | 72 | 1014.8 |
| 20260905104932 | 80 | 60 | 0.0 | 6.0 | 0.00 | 0.00 | 0.00 | 71 | 1014.8 |
| 20260905104232 | 80 | 58 | 0.0 | 6.0 | 0.00 | 0.00 | 0.00 | 70 | 1014.5 |
| 20260905103532 | 81 | 59 | 0.0 | 6.0 | 0.00 | 0.00 | 0.00 | 70 | 1014.5 |
| 20260905102833 | 81 | 59 | 0.0 | 6.0 | 0.00 | 0.00 | 0.00 | 69 | 1014.5 |
| 20260905102132 | 81 | 60 | 0.0 | 6.0 | 0.00 | 0.00 | 0.00 | 69 | 1014.5 |
| 20260905101432 | 81 | 62 | 0.0 | 6.0 | 0.00 | 0.00 | 0.00 | 69 | 1014.1 |
| 20260905100732 | 82 | 58 | 0.0 | 6.0 | 0.00 | 0.00 | 0.00 | 68 | 1014.5 |
| 20260905100032 | 82 | 60 | 0.0 | 6.0 | 0.00 | 0.00 | 0.00 | 67 | 1014.5 |
| 20260905095332 | 82 | 60 | 0.0 | 6.0 | 0.00 | 0.00 | 0.00 | 67 | 1014.5 |
| 20260905094632 | 82 | 60 | 0.0 | 6.0 | 0.00 | 0.00 | 0.00 | 67 | 1014.1 |
| 20260905093232 | 82 | 59 | 0.0 | 6.0 | 0.00 | 0.00 | 0.00 | 66 | 1014.5 |
| 20260905092532 | 83 | 60 | 0.0 | 6.0 | 0.00 | 0.00 | 0.00 | 66 | 1014.5 |
| 20260905091832 | 83 | 64 | 2.0 | 6.0 | 0.00 | 0.00 | 0.00 | 66 | 1014.5 |
| 20260905090432 | 83 | 59 | 0.0 | 4.0 | 0.00 | 0.00 | 0.00 | 65 | 1014.5 |
| 20260905085732 | 82 | 58 | 0.0 | 4.0 | 0.00 | 0.00 | 0.00 | 65 | 1014.1 |
| 20260905085032 | 82 | 66 | 5.0 | 4.0 | 0.00 | 0.00 | 0.00 | 65 | 1014.1 |
| 20260905084332 | 82 | 59 | 0.0 | 4.0 | 0.00 | 0.00 | 0.00 | 66 | 1014.1 |
| 20260905083632 | 82 | 59 | 0.0 | 4.0 | 0.00 | 0.00 | 0.00 | 65 | 1014.1 |
| 20260905081532 | 83 | 63 | 2.0 | 2.0 | 0.00 | 0.00 | 0.00 | 65 | 1014.1 |
| 20260905080832 | 83 | 60 | 0.0 | 2.0 | 0.00 | 0.00 | 0.00 | 65 | 1014.1 |
| 20260905075432 | 83 | 59 | 0.0 | 4.0 | 0.00 | 0.00 | 0.00 | 64 | 1014.1 |
| 20260905074732 | 84 | 58 | 0.0 | 4.0 | 0.00 | 0.00 | 0.00 | 64 | 1014.1 |
| 20260905074032 | 84 | 56 | 2.0 | 4.0 | 0.00 | 0.00 | 0.00 | 63 | 1014.1 |
| 20260905073332 | 84 | 61 | 0.0 | 4.0 | 0.00 | 0.00 | 0.00 | 63 | 1014.1 |
| 20260905071932 | 84 | 61 | 0.0 | 4.0 | 0.00 | 0.00 | 0.00 | 63 | 1014.5 |
| 20260905070532 | 84 | 60 | 5.0 | 4.0 | 0.00 | 0.00 | 0.00 | 63 | 1014.5 |
| 20260905065834 | 84 | 59 | 0.0 | 4.0 | 0.00 | 0.00 | 0.00 | 63 | 1014.5 |
| 20260905065132 | 84 | 69 | 0.0 | 4.0 | 0.00 | 0.00 | 0.00 | 63 | 1014.5 |
| 20260905063732 | 85 | 59 | 0.0 | 6.0 | 0.00 | 0.00 | 0.00 | 63 | 1014.5 |
| 20260905062332 | 85 | 62 | 0.0 | 6.0 | 0.00 | 0.00 | 0.00 | 62 | 1014.1 |
| 20260905061632 | 85 | 61 | 0.0 | 6.0 | 0.00 | 0.00 | 0.00 | 62 | 1014.8 |
| 20260905060232 | 85 | 58 | 0.0 | 6.0 | 0.00 | 0.00 | 0.00 | 62 | 1014.5 |
| 20260905055532 | 85 | 59 | 0.0 | 6.0 | 0.00 | 0.00 | 0.00 | 62 | 1014.5 |
| 20260905054832 | 86 | 58 | 0.0 | 4.0 | 0.00 | 0.00 | 0.00 | 61 | 1014.1 |
| 20260905054131 | 86 | 59 | 0.0 | 4.0 | 0.00 | 0.00 | 0.00 | 61 | 1014.5 |
| 20260905053432 | 86 | 61 | 0.0 | 4.0 | 0.00 | 0.00 | 0.00 | 61 | 1014.1 |
| 20260905052732 | 86 | 60 | 0.0 | 6.0 | 0.00 | 0.00 | 0.00 | 60 | 1014.1 |
| 20260905052032 | 86 | 60 | 0.0 | 6.0 | 0.00 | 0.00 | 0.00 | 60 | 1014.1 |
| 20260905051331 | 86 | 59 | 2.0 | 6.0 | 0.00 | 0.00 | 0.00 | 60 | 1014.1 |
| 20260905050632 | 86 | 59 | 0.0 | 6.0 | 0.00 | 0.00 | 0.00 | 60 | 1014.1 |
| 20260905045932 | 86 | 59 | 0.0 | 6.0 | 0.00 | 0.00 | 0.00 | 59 | 1014.1 |
| 20260905045231 | 87 | 62 | 2.0 | 6.0 | 0.00 | 0.00 | 0.00 | 59 | 1014.1 |
| 20260905044531 | 87 | 59 | 0.0 | 6.0 | 0.00 | 0.00 | 0.00 | 59 | 1014.1 |
| 20260905043831 | 87 | 61 | 0.0 | 6.0 | 0.00 | 0.00 | 0.00 | 58 | 1014.1 |
| 20260905042432 | 87 | 59 | 0.0 | 6.0 | 0.00 | 0.00 | 0.00 | 57 | 1014.1 |
| 20260905041032 | 87 | 57 | 0.0 | 8.0 | 0.00 | 0.00 | 0.00 | 57 | 1014.1 |
| 20260905040331 | 88 | 61 | 5.0 | 8.0 | 0.00 | 0.00 | 0.00 | 56 | 1014.1 |
| 20260905035631 | 88 | 58 | 0.0 | 10.0 | 0.00 | 0.00 | 0.00 | 56 | 1014.1 |
| 20260905034931 | 88 | 60 | 0.0 | 10.0 | 0.00 | 0.00 | 0.00 | 55 | 1014.5 |
| 20260905034231 | 88 | 66 | 5.0 | 10.0 | 0.00 | 0.00 | 0.00 | 55 | 1014.1 |
| 20260905033531 | 88 | 60 | 5.0 | 10.0 | 0.00 | 0.00 | 0.00 | 54 | 1014.1 |
| 20260905032832 | 89 | 60 | 0.0 | 10.0 | 0.00 | 0.00 | 0.00 | 54 | 1014.1 |
| 20260905032131 | 89 | 60 | 5.0 | 10.0 | 0.00 | 0.00 | 0.00 | 53 | 1014.1 |
| 20260905030031 | 90 | 58 | 2.0 | 6.0 | 0.00 | 0.00 | 0.00 | 51 | 1014.1 |
| 20260905025331 | 90 | 59 | 2.0 | 6.0 | 0.00 | 0.00 | 0.00 | 51 | 1014.1 |
| 20260905024631 | 90 | 66 | 0.0 | 6.0 | 0.00 | 0.00 | 0.00 | 51 | 1014.1 |
| 20260905022531 | 91 | 46 | 0.0 | 8.0 | 0.00 | 0.00 | 0.00 | 50 | 1013.5 |
| 20260905021831 | 91 | 82 | 2.0 | 8.0 | 0.00 | 0.00 | 0.00 | 49 | 1013.5 |
| 20260905021131 | 91 | 60 | 2.0 | 8.0 | 0.00 | 0.00 | 0.00 | 49 | 1013.1 |
| 20260905020432 | 91 | 46 | 0.0 | 8.0 | 0.00 | 0.00 | 0.00 | 49 | 1013.1 |
| 20260905015731 | 91 | 60 | 0.0 | 8.0 | 0.00 | 0.00 | 0.00 | 49 | 1012.8 |
| 20260905014331 | 92 | 78 | 2.0 | 8.0 | 0.00 | 0.00 | 0.00 | 48 | 1012.8 |
| 20260905013631 | 92 | 68 | 5.0 | 8.0 | 0.00 | 0.00 | 0.00 | 48 | 1012.8 |
| 20260905012931 | 92 | 65 | 0.0 | 10.0 | 0.00 | 0.00 | 0.00 | 47 | 1012.8 |
| 20260905011531 | 93 | 96 | 5.0 | 10.0 | 0.00 | 0.00 | 0.00 | 47 | 1012.4 |
| 20260905010831 | 93 | 50 | 5.0 | 10.0 | 0.00 | 0.00 | 0.00 | 46 | 1012.4 |
| 20260905010131 | 93 | 76 | 2.0 | 10.0 | 0.00 | 0.00 | 0.00 | 46 | 1012.4 |
| 20260905005431 | 93 | 46 | 5.0 | 10.0 | 0.00 | 0.00 | 0.00 | 46 | 1012.4 |
| 20260905004731 | 94 | 59 | 0.0 | 10.0 | 0.00 | 0.00 | 0.00 | 45 | 1012.4 |
| 20260905004031 | 94 | 63 | 14.0 | 10.0 | 0.00 | 0.00 | 0.00 | 45 | 1012.4 |
| 20260905003331 | 94 | 63 | 5.0 | 10.0 | 0.00 | 0.00 | 0.00 | 45 | 1012.4 |
| 20260905002631 | 94 | 59 | 8.0 | 10.0 | 0.00 | 0.00 | 0.00 | 46 | 1012.1 |
| 20260905001931 | 94 | 79 | 5.0 | 12.0 | 0.00 | 0.00 | 0.00 | 46 | 1012.1 |
| 20260905001231 | 95 | 56 | 5.0 | 12.0 | 0.00 | 0.00 | 0.00 | 45 | 1012.4 |
| 20260905000531 | 95 | 34 | 5.0 | 12.0 | 0.00 | 0.00 | 0.00 | 46 | 1012.1 |
| 20260904235832 | 95 | 60 | 2.0 | 14.0 | 0.00 | 0.00 | 0.00 | 46 | 1012.1 |
| 20260904235131 | 95 | 86 | 11.0 | 14.0 | 0.00 | 0.00 | 0.00 | 46 | 1012.1 |
| 20260904234431 | 96 | 73 | 8.0 | 14.0 | 0.00 | 0.00 | 0.00 | 45 | 1012.1 |
| 20260904233031 | 96 | 73 | 8.0 | 14.0 | 0.00 | 0.00 | 0.00 | 45 | 1012.1 |
| 20260904232331 | 96 | 40 | 5.0 | 14.0 | 0.00 | 0.00 | 0.00 | 45 | 1011.8 |
| 20260904231631 | 96 | 57 | 2.0 | 14.0 | 0.00 | 0.00 | 0.00 | 45 | 1012.1 |
| 20260904230231 | 97 | 66 | 8.0 | 14.0 | 0.00 | 0.00 | 0.00 | 45 | 1012.1 |
| 20260904225531 | 97 | 59 | 2.0 | 14.0 | 0.00 | 0.00 | 0.00 | 45 | 1011.8 |
| 20260904224831 | 97 | 83 | 11.0 | 14.0 | 0.00 | 0.00 | 0.00 | 45 | 1012.1 |
| 20260904223431 | 98 | 56 | 2.0 | 12.0 | 0.00 | 0.00 | 0.00 | 44 | 1011.8 |
| 20260904222731 | 98 | 76 | 5.0 | 12.0 | 0.00 | 0.00 | 0.00 | 44 | 1011.8 |
| 20260904222031 | 99 | 92 | 11.0 | 12.0 | 0.00 | 0.00 | 0.00 | 44 | 1012.1 |
| 20260904214532 | 100 | 59 | 5.0 | 14.0 | 0.00 | 0.00 | 0.00 | 42 | 1012.1 |
| 20260904213831 | 100 | 103 | 5.0 | 14.0 | 0.00 | 0.00 | 0.00 | 42 | 1012.4 |
| 20260904213131 | 99 | 57 | 8.0 | 14.0 | 0.00 | 0.00 | 0.00 | 44 | 1012.4 |
| 20260904212431 | 98 | 61 | 8.0 | 17.0 | 0.00 | 0.00 | 0.00 | 43 | 1012.1 |
| 20260904211731 | 100 | 75 | 2.0 | 17.0 | 0.00 | 0.00 | 0.00 | 42 | 1012.4 |
| 20260904211031 | 101 | 70 | 11.0 | 17.0 | 0.00 | 0.00 | 0.00 | 41 | 1012.4 |
| 20260904210331 | 102 | 103 | 19.0 | 17.0 | 0.00 | 0.00 | 0.00 | 41 | 1012.8 |
| 20260904205631 | 103 | 80 | 8.0 | 17.0 | 0.00 | 0.00 | 0.00 | 40 | 1012.8 |
| 20260904204931 | 103 | 73 | 5.0 | 17.0 | 0.00 | 0.00 | 0.00 | 41 | 1012.8 |
| 20260904204230 | 103 | 54 | 14.0 | 17.0 | 0.00 | 0.00 | 0.00 | 41 | 1012.8 |
| 20260904203531 | 103 | 142 | 11.0 | 17.0 | 0.00 | 0.00 | 0.00 | 43 | 1012.8 |
| 20260904202831 | 102 | 60 | 0.0 | 14.0 | 0.00 | 0.00 | 0.00 | 43 | 1013.1 |
| 20260904202131 | 101 | 55 | 8.0 | 14.0 | 0.00 | 0.00 | 0.00 | 44 | 1013.1 |
| 20260904201431 | 100 | 57 | 8.0 | 14.0 | 0.00 | 0.00 | 0.00 | 45 | 1013.1 |
| 20260904200730 | 100 | 69 | 5.0 | 14.0 | 0.00 | 0.00 | 0.00 | 45 | 1013.1 |
| 20260904200031 | 100 | 61 | 2.0 | 14.0 | 0.00 | 0.00 | 0.00 | 45 | 1013.5 |
| 20260904194630 | 99 | 85 | 11.0 | 10.0 | 0.00 | 0.00 | 0.00 | 46 | 1013.8 |
| 20260904193931 | 99 | 94 | 14.0 | 10.0 | 0.00 | 0.00 | 0.00 | 46 | 1013.8 |
| 20260904193231 | 99 | 43 | 11.0 | 10.0 | 0.00 | 0.00 | 0.00 | 45 | 1013.8 |
| 20260904192530 | 99 | 94 | 14.0 | 12.0 | 0.00 | 0.00 | 0.00 | 46 | 1013.8 |
| 20260904190430 | 98 | 56 | 8.0 | 14.0 | 0.00 | 0.00 | 0.00 | 47 | 1014.1 |
| 20260904185030 | 98 | 83 | 0.0 | 14.0 | 0.00 | 0.00 | 0.00 | 46 | 1014.1 |
| 20260904184331 | 99 | 72 | 5.0 | 14.0 | 0.00 | 0.00 | 0.00 | 45 | 1014.5 |
| 20260904183630 | 99 | 88 | 5.0 | 14.0 | 0.00 | 0.00 | 0.00 | 47 | 1014.5 |
| 20260904182930 | 99 | 61 | 8.0 | 14.0 | 0.00 | 0.00 | 0.00 | 47 | 1014.8 |
| 20260904182231 | 98 | 24 | 8.0 | 14.0 | 0.00 | 0.00 | 0.00 | 47 | 1014.5 |
| 20260904181531 | 99 | 111 | 11.0 | 14.0 | 0.00 | 0.00 | 0.00 | 47 | 1014.8 |